Location: Newark
(9.4667°S, 159.8167°E)
Time: 07:49:38
(UTC+00:00)

Courier 1B Rocket - Pass Details

Date: 22 November 2019
Orbit: 920 x 1202 km, 28.2° (Epoch: 05 December)

Event Time Altitude Azimuth Distance (km) Brightness Sun altitude
Rises 16:01:00 0° 245° (WSW) 3,938 - -37.9°
Reaches altitude 10° 16:05:06 10° 225° (SW) 2,920 - -37.1°
Exits shadow 16:07:49 15° 203° (SSW) 2,503 7.2 -36.5°
Maximum altitude 16:09:19 16° 188° (S) 2,419 7.2 -36.2°
Drops below altitude 10° 16:13:24 10° 151° (SSE) 2,794 8.0 -35.4°
Sets 16:17:12 0° 130° (SE) 3,688 9.1 -34.6°
